Track STARLINK-1835 now! 10-day predictions STARLINK-1835 is classified as:
1 46782U 20074AV 22181.58508765 -.00000304 00000-0 -15091-5 0 9998 2 46782 53.0549 243.4926 0001454 69.0561 291.0583 15.06395141 93629